Home > Weather > Częstochowa > Past weeks

Flag for Poland Weather for the Past 2 Weeks in Częstochowa, Poland

Now
48 °F

Clear.


Feels Like: 46 °F
Forecast: 42 / 65 °F
Wind: 6 mph from Northeast

Location: Katowice Airport

Current Time: May 2, 2016 at 1:19:07 AM

Latest Report: May 2, 2016 at 12:30 AM


Visibility: 10 mi

Pressure: 30.15 "Hg

Humidity: 71%

Dew Point: 39 °F

Location of CzęstochowaLocation

Historic Weather in Częstochowa — Graph

°F

Częstochowa Temperature Yesterday

Maximum temperature yesterday: 61 °F (at 3:00 PM)
Minimum temperature yesterday: 34 °F (at 5:00 AM)
Average temperature yesterday: 50 °F

High & Low Weather Summary for the Past Weeks

 TemperatureHumidityPressure
High68 °F (Apr 17, 1:30 PM)100% (Apr 17, 1:00 AM)30.30 "Hg (Apr 17, 1:00 AM)
Low23 °F (Apr 26, 6:00 AM)24% (Apr 23, 1:30 PM)29.59 "Hg (Apr 24, 12:30 AM)
Average45 °F70%29.95 "Hg
* Reported Midnight between Apr 16 and Apr 17 — Midnight between May 1 and May 2, Częstochowa, Weather by CustomWeather, © 2016

Note: Actual official high and low records may vary slightly from our data, if they occured in-between our weather recording intervals... More about our weather records

Advertising

Częstochowa Weather History for the Previous 24 Hours

Scroll right to see more
 ConditionsComfort  
Time TempWeatherWind HumidityBarometerVisibility
12:00 AM
Mon, May 2
48 °FClear.6 mph76%30.15 "Hg10 mi
11:30 PM
Sun, May 1
50 °FClear.8 mph71%30.15 "Hg10 mi
11:00 PM50 °FClear.8 mph71%30.15 "Hg10 mi
10:30 PM52 °FPassing clouds.8 mph67%30.15 "HgN/A
10:00 PM52 °FPassing clouds.9 mph67%30.15 "HgN/A
9:30 PM54 °FClear.8 mph63%30.15 "Hg10 mi
9:00 PM54 °FPassing clouds.7 mph63%30.15 "HgN/A
8:30 PM55 °FPassing clouds.7 mph59%30.15 "HgN/A
8:00 PM55 °FPassing clouds.6 mph55%30.15 "HgN/A
7:30 PM57 °FSunny.5 mph55%30.12 "Hg10 mi
7:00 PM59 °FSunny.6 mph51%30.12 "Hg10 mi
6:30 PM59 °FSunny.7 mph59%30.12 "Hg10 mi
6:00 PM61 °FSunny.8 mph52%30.12 "Hg10 mi
5:30 PM61 °FPassing clouds.9 mph52%30.09 "HgN/A
5:00 PM61 °FPassing clouds.8 mph48%30.12 "HgN/A
4:30 PM61 °FPassing clouds.7 mph52%30.12 "HgN/A
4:00 PM61 °FPassing clouds.7 mph52%30.09 "HgN/A
3:30 PM61 °FPassing clouds.6 mph48%30.12 "HgN/A
3:00 PM61 °FPassing clouds.9 mph55%30.12 "HgN/A
2:30 PM59 °FPassing clouds.8 mph55%30.12 "HgN/A
2:00 PM59 °FScattered clouds.9 mph55%30.12 "HgN/A
1:30 PM59 °FPassing clouds.10 mph55%30.12 "HgN/A
1:00 PM57 °FPassing clouds.12 mph59%30.12 "HgN/A
12:30 PM55 °FPassing clouds.12 mph63%30.15 "HgN/A
12:00 PM55 °FPassing clouds.12 mph63%30.12 "HgN/A
11:30 AM55 °FPassing clouds.12 mph67%30.12 "HgN/A
11:00 AM54 °FPassing clouds.13 mph72%30.12 "HgN/A
10:30 AM52 °FPassing clouds.12 mph77%30.12 "HgN/A
10:00 AM50 °FPassing clouds.10 mph82%30.12 "HgN/A
9:00 AM43 °FPartly sunny.8 mph100%30.12 "Hg4 mi
8:30 AM43 °FFog.9 mph100%30.12 "Hg2 mi
8:00 AM41 °FFog.7 mph100%30.12 "Hg1 mi
7:30 AM39 °FFog.8 mph100%30.12 "Hg0 mi
6:30 AM34 °FFog.2 mph100%30.12 "Hg1 mi
6:00 AM34 °FFog.3 mph100%30.12 "Hg1 mi
5:00 AM34 °FChilly.2 mph100%30.09 "Hg1 mi
4:30 AM36 °FFog.3 mph93%30.09 "Hg1 mi
4:00 AM36 °FFog.2 mph100%30.09 "Hg0 mi
3:00 AM36 °FFog.2 mph100%30.09 "Hg1 mi
2:00 AM37 °FFog.6 mph100%30.09 "Hg2 mi
1:30 AM39 °FFog.5 mph93%30.12 "Hg3 mi
1:00 AM41 °FClear.5 mph93%30.12 "Hg4 mi
Weather by CustomWeather, © 2016

See weather overviewHow to use our weather pages